Location: Firdgum
(53.2488°N, 5.5615°E)
Time: 22:31:50
(UTC+00:00)

Cosmos 1371 Rocket - Pass Details

Date: 08 December 2019
Orbit: 754 x 789 km, 74.0° (Epoch: 17 January)

Event Time Altitude Azimuth Distance (km) Brightness Sun altitude
Exits shadow 04:26:39 18° 183° (S) 1,788 5.9 -27.3°
Maximum altitude 04:30:22 58° 110° (ESE) 888 4.5 -26.7°
Drops below altitude 10° 04:35:29 10° 32° (NNE) 2,300 6.8 -26.0°
Sets 04:37:52 0° 29° (NNE) 3,226 7.5 -25.6°
